Weather History for Darwin Airport, Northern Territory

Change the Weather History Date:

Sunday, June 2, 2013

  Actual Average Record
Temperature  
Mean Temperature 82 °F -  
Max Temperature 91 °F 87 °F - ()
Min Temperature 72 °F 68 °F - ()
Cooling Degree Days 16    
Growing Degree Days 32 (Base 50)    
Moisture  
Dew Point 66 °F    
Average Humidity 65    
Maximum Humidity 94    
Minimum Humidity 20    
Precipitation  
Precipitation 0.00 in 0.00 in - ()
Sea Level Pressure  
Sea Level Pressure 29.83 in    
Wind  
Wind Speed 8 mph ()    
Max Wind Speed 20 mph    
Max Gust Speed -    
Visibility 14.1 miles    
Events      
T = Trace of Precipitation, MM = Missing Value Source: Averaged Metar Reports

Daily Weather History Graph

Daily Weather History Graph

Search for Another Location

Airport:

Trip Planner

Search our weather history database for the weather conditions in past years. The results will help you decide how hot, cold, wet, or windy it might be!

Date:

Astronomy

Jun. 02, 2013 Rise Set
Actual Time 7:01 AM ACST 6:27 PM ACST
Civil Twilight 6:38 AM ACST 6:50 PM ACST
Nautical Twilight 6:12 AM ACST 7:16 PM ACST
Astronomical Twilight 5:45 AM ACST 7:42 PM ACST
Moon 1:30 AM ACST (6/2) 1:49 PM ACST (6/2)
Length of Visible Light 12h 11m
Length of Day
11h 26m
Last Quarter, 36% of the Moon is Illuminated
Jun 2
Last Quarter
Jun 9
New
Jun 17
First Quarter
Jun 23
Full
Jun 30
Last Quarter

Hourly Weather History & Observations

Time (ACST) Temp. Heat Index Dew Point Humidity Pressure Visibility Wind Dir Wind Speed Gust Speed Precip Events Conditions
12:00 AM 73 °F - 71 °F 92% 29.85 in 19 mi Calm Calm - -   Partly Cloudy
12:00 AM 73.4 °F - 71.6 °F 94% 29.83 in - Calm Calm - N/A   Clear
12:30 AM 73 °F - 71 °F 92% 29.85 in - North 4.6 mph - -  
12:30 AM 73.4 °F - 71.6 °F 94% 29.83 in - North 4.6 mph - N/A   Clear
1:00 AM 73.4 °F - 71.6 °F 94% 29.83 in - North 5.8 mph - N/A   Clear
1:30 AM 75.2 °F - 73.4 °F 94% 29.83 in - NE 6.9 mph - N/A   Clear
2:00 AM 75.2 °F - 73.4 °F 94% 29.83 in 6.2 mi ENE 5.8 mph - N/A   Partly Cloudy
2:30 AM 77.0 °F - 73.4 °F 89% 29.83 in 6.2 mi ESE 6.9 mph - N/A   Partly Cloudy
3:00 AM 76 °F - 73 °F 86% 29.85 in 19 mi East 6.9 mph - -   Partly Cloudy
3:00 AM 75.2 °F - 73.4 °F 94% 29.83 in 6.2 mi East 6.9 mph - N/A   Partly Cloudy
3:30 AM 75 °F - 72 °F 88% 29.84 in - East 6.9 mph - -  
3:30 AM 75.2 °F - 71.6 °F 89% 29.83 in - East 6.9 mph - N/A   Clear
4:00 AM 73.4 °F - 71.6 °F 94% 29.83 in - East 5.8 mph - N/A   Clear
4:30 AM 73.4 °F - 71.6 °F 94% 29.83 in - SE 6.9 mph - N/A   Clear
5:00 AM 73.4 °F - 71.6 °F 94% 29.86 in - SE 6.9 mph - N/A   Clear
5:30 AM 73.4 °F - 71.6 °F 94% 29.86 in - SSE 8.1 mph - N/A   Clear
6:00 AM 73 °F - 71 °F 92% 29.86 in 19 mi SSE 6.9 mph - -   Partly Cloudy
6:00 AM 73.4 °F - 71.6 °F 94% 29.86 in - SSE 6.9 mph - N/A   Clear
6:30 AM 73 °F - 71 °F 91% 29.86 in - SE 8.1 mph - -  
6:30 AM 73.4 °F - 71.6 °F 94% 29.86 in 6.2 mi SE 8.1 mph - N/A   Scattered Clouds
7:00 AM 73.4 °F - 71.6 °F 94% 29.86 in - SE 9.2 mph - N/A   Clear
7:30 AM 73.4 °F - 69.8 °F 88% 29.86 in - SE 8.1 mph - N/A   Clear
8:00 AM 75.2 °F - 69.8 °F 83% 29.89 in - SE 10.4 mph - N/A   Clear
8:30 AM 77.0 °F - 68.0 °F 74% 29.89 in - ESE 9.2 mph - N/A   Clear
9:00 AM 80 °F - 67 °F 56% 29.90 in 19 mi East 13.8 mph - -   Partly Cloudy
9:00 AM 80.6 °F 82.7 °F 66.2 °F 61% 29.89 in - East 13.8 mph - N/A   Clear
9:30 AM 82.4 °F 83.9 °F 64.4 °F 54% 29.89 in - East 13.8 mph - N/A   Clear
10:00 AM 84.2 °F 85.0 °F 62.6 °F 48% 29.89 in - East 15.0 mph - N/A   Clear
10:30 AM 84.2 °F 84.4 °F 60.8 °F 45% 29.89 in - East 16.1 mph - N/A   Clear
11:00 AM 86.0 °F 86.6 °F 62.6 °F 45% 29.89 in - East 18.4 mph - N/A   Clear
11:30 AM 86.0 °F 86.1 °F 60.8 °F 43% 29.86 in - East 17.3 mph - N/A   Clear
12:00 PM 87 °F - 60 °F 30% 29.86 in 19 mi ENE 16.1 mph - -   Partly Cloudy
12:00 PM 87.8 °F 87.6 °F 60.8 °F 40% 29.86 in - ENE 16.1 mph - N/A   Clear
12:30 PM 87 °F - 58 °F 27% 29.83 in - East 12.7 mph - -  
12:30 PM 87.8 °F 86.5 °F 57.2 °F 35% 29.83 in - East 12.7 mph - N/A   Clear
1:00 PM 89.6 °F 88.9 °F 59.0 °F 36% 29.80 in - East 17.3 mph - N/A   Clear
1:30 PM 89.6 °F 87.7 °F 55.4 °F 31% 29.80 in - East 17.3 mph - N/A   Clear
2:00 PM 89.6 °F 88.1 °F 57.2 °F 33% 29.77 in - East 19.6 mph - N/A   Clear
2:30 PM 89.6 °F 87.7 °F 55.4 °F 31% 29.77 in - East 15.0 mph - N/A   Clear
3:00 PM 90 °F - 54 °F 20% 29.77 in 19 mi East 18.4 mph - -   Smoke
3:00 PM 89.6 °F 87.3 °F 53.6 °F 29% 29.77 in - East 18.4 mph - N/A   Clear
3:30 PM 90 °F - 55 °F 21% 29.76 in - East 16.1 mph - -  
3:30 PM 91.4 °F 89.4 °F 55.4 °F 29% 29.77 in - East 16.1 mph - N/A   Clear
4:00 PM 91.4 °F 89.9 °F 57.2 °F 31% 29.74 in - East 16.1 mph - N/A   Clear
4:30 PM 89.6 °F 88.1 °F 57.2 °F 33% 29.74 in - East 16.1 mph - N/A   Clear
5:00 PM 89.6 °F 88.1 °F 57.2 °F 33% 29.74 in - East 15.0 mph - N/A   Clear
5:30 PM 87.8 °F 86.5 °F 57.2 °F 35% 29.77 in 6.2 mi East 17.3 mph - N/A   Mostly Cloudy
6:00 PM 85 °F - 64 °F 40% 29.78 in 19 mi NE 12.7 mph - -   Smoke
6:00 PM 84.2 °F 85.6 °F 64.4 °F 51% 29.77 in - NE 12.7 mph - N/A   Clear
6:30 PM 82 °F - 65 °F 47% 29.78 in - NE 11.5 mph - -  
6:30 PM 82.4 °F 83.9 °F 64.4 °F 54% 29.77 in - NE 11.5 mph - N/A   Clear
7:00 PM 80.6 °F 82.3 °F 64.4 °F 58% 29.80 in - NE 11.5 mph - N/A   Clear
7:30 PM 78.8 °F - 66.2 °F 65% 29.80 in - NE 9.2 mph - N/A   Clear
8:00 PM 77.0 °F - 66.2 °F 69% 29.80 in - NE 8.1 mph - N/A   Clear
8:30 PM 77.0 °F - 66.2 °F 69% 29.83 in - NE 6.9 mph - N/A   Clear
9:00 PM 76 °F - 67 °F 66% 29.83 in 19 mi ENE 6.9 mph - -   Partly Cloudy
9:00 PM 75.2 °F - 66.2 °F 73% 29.83 in - ENE 6.9 mph - N/A   Clear
9:30 PM 76 °F - 67 °F 66% 29.83 in - ENE 6.9 mph - -  
9:30 PM 75.2 °F - 66.2 °F 73% 29.83 in - ENE 6.9 mph - N/A   Clear
10:00 PM 77.0 °F - 68.0 °F 74% 29.83 in - ENE 8.1 mph - N/A   Clear
10:30 PM 75.2 °F - 69.8 °F 83% 29.83 in - ENE 6.9 mph - N/A   Clear
11:00 PM 75.2 °F - 69.8 °F 83% 29.83 in - ENE 5.8 mph - N/A   Clear
11:30 PM 75.2 °F - 71.6 °F 89% 29.83 in - ENE 5.8 mph - N/A   Clear